Wetterdaten: Sonntag, 13.02.2011
Datum Zeit Temp. A. Feuchte A. Luftdruck Regen Wind Richtung Richtung Sonnenschein UV Solar Windben
13.02.2011 00:00 3,5 C 91 % 1012,3 hPa 0,0 mm 0,0 km/h (0 Bft) O-SO 112 0 min 0 UV-I 0 W/m 3,2 km/h (1 Bft)
13.02.2011 00:10 3,6 C 91 % 1012,3 hPa 0,0 mm 0,0 km/h (0 Bft) O-SO 112 0 min 0 UV-I 0 W/m 3,2 km/h (1 Bft)
13.02.2011 00:20 3,6 C 91 % 1012,2 hPa 0,0 mm 0,0 km/h (0 Bft) O-SO 112 0 min 0 UV-I 0 W/m 1,6 km/h (1 Bft)
13.02.2011 00:30 3,6 C 91 % 1012,1 hPa 0,3 mm 0,0 km/h (0 Bft) O-SO 112 0 min 0 UV-I 0 W/m 3,2 km/h (1 Bft)
13.02.2011 00:40 3,6 C 91 % 1012,1 hPa 0,0 mm 1,6 km/h (1 Bft) O-SO 112 0 min 0 UV-I 0 W/m 6,4 km/h (2 Bft)
13.02.2011 00:50 3,7 C 91 % 1012,1 hPa 0,0 mm 0,0 km/h (0 Bft) O-SO 112 0 min 0 UV-I 0 W/m 3,2 km/h (1 Bft)
13.02.2011 01:00 3,7 C 92 % 1012,0 hPa 0,0 mm 1,6 km/h (1 Bft) O-SO 112 0 min 0 UV-I 0 W/m 4,8 km/h (1 Bft)
13.02.2011 01:10 3,7 C 92 % 1011,9 hPa 0,0 mm 1,6 km/h (1 Bft) O-SO 112 0 min 0 UV-I 0 W/m 4,8 km/h (1 Bft)
13.02.2011 01:20 3,7 C 92 % 1011,9 hPa 0,0 mm 1,6 km/h (1 Bft) O-SO 112 0 min 0 UV-I 0 W/m 6,4 km/h (2 Bft)
13.02.2011 01:30 3,7 C 92 % 1011,8 hPa 0,0 mm 1,6 km/h (1 Bft) O-SO 112 0 min 0 UV-I 0 W/m 3,2 km/h (1 Bft)
13.02.2011 01:40 3,7 C 92 % 1011,9 hPa 0,0 mm 0,0 km/h (0 Bft) O-SO 112 0 min 0 UV-I 0 W/m 1,6 km/h (1 Bft)
13.02.2011 01:50 3,8 C 92 % 1011,8 hPa 0,3 mm 0,0 km/h (0 Bft) O-SO 112 0 min 0 UV-I 0 W/m 3,2 km/h (1 Bft)
13.02.2011 02:00 3,8 C 92 % 1011,9 hPa 0,3 mm 0,0 km/h (0 Bft) O-SO 112 0 min 0 UV-I 0 W/m 3,2 km/h (1 Bft)
13.02.2011 02:10 3,8 C 92 % 1011,9 hPa 0,0 mm 0,0 km/h (0 Bft) O-SO 112 0 min 0 UV-I 0 W/m 3,2 km/h (1 Bft)
13.02.2011 02:20 3,8 C 92 % 1011,9 hPa 0,3 mm 0,0 km/h (0 Bft) O-SO 112 0 min 0 UV-I 0 W/m 3,2 km/h (1 Bft)
13.02.2011 02:30 3,8 C 92 % 1011,8 hPa 0,0 mm 0,0 km/h (0 Bft) O-SO 112 0 min 0 UV-I 0 W/m 3,2 km/h (1 Bft)
13.02.2011 02:40 3,8 C 92 % 1011,7 hPa 0,0 mm 0,0 km/h (0 Bft) O-SO 112 0 min 0 UV-I 0 W/m 3,2 km/h (1 Bft)
13.02.2011 02:50 3,8 C 92 % 1011,7 hPa 0,3 mm 0,0 km/h (0 Bft) O-SO 112 0 min 0 UV-I 0 W/m 1,6 km/h (1 Bft)
13.02.2011 03:00 3,8 C 92 % 1011,6 hPa 0,0 mm 0,0 km/h (0 Bft) O-SO 112 0 min 0 UV-I 0 W/m 3,2 km/h (1 Bft)
13.02.2011 03:10 3,9 C 92 % 1011,5 hPa 0,0 mm 0,0 km/h (0 Bft) O-SO 112 0 min 0 UV-I 0 W/m 1,6 km/h (1 Bft)
13.02.2011 03:20 3,9 C 92 % 1011,5 hPa 0,0 mm 1,6 km/h (1 Bft) O-SO 112 0 min 0 UV-I 0 W/m 4,8 km/h (1 Bft)
13.02.2011 03:30 3,9 C 92 % 1011,4 hPa 0,0 mm 0,0 km/h (0 Bft) O-SO 112 0 min 0 UV-I 0 W/m 4,8 km/h (1 Bft)
13.02.2011 03:40 4,0 C 92 % 1011,3 hPa 0,0 mm 0,0 km/h (0 Bft) O-SO 112 0 min 0 UV-I 0 W/m 3,2 km/h (1 Bft)
13.02.2011 03:50 4,1 C 92 % 1011,2 hPa 0,0 mm 0,0 km/h (0 Bft) O-SO 112 0 min 0 UV-I 0 W/m 4,8 km/h (1 Bft)
13.02.2011 04:00 4,1 C 92 % 1011,1 hPa 0,0 mm 0,0 km/h (0 Bft) O-SO 112 0 min 0 UV-I 0 W/m 3,2 km/h (1 Bft)
13.02.2011 04:10 4,1 C 92 % 1011,1 hPa 0,0 mm 0,0 km/h (0 Bft) O-SO 112 0 min 0 UV-I 0 W/m 1,6 km/h (1 Bft)
13.02.2011 04:20 4,1 C 92 % 1011,1 hPa 0,0 mm 0,0 km/h (0 Bft) O-SO 112 0 min 0 UV-I 0 W/m 1,6 km/h (1 Bft)
13.02.2011 04:30 4,2 C 92 % 1011,1 hPa 0,0 mm 0,0 km/h (0 Bft) O-SO 112 0 min 0 UV-I 0 W/m 1,6 km/h (1 Bft)
13.02.2011 04:40 4,2 C 92 % 1011,1 hPa 0,0 mm 0,0 km/h (0 Bft) O-SO 112 0 min 0 UV-I 0 W/m 3,2 km/h (1 Bft)
13.02.2011 04:50 4,2 C 92 % 1011,0 hPa 0,0 mm 0,0 km/h (0 Bft) O-SO 112 0 min 0 UV-I 0 W/m 3,2 km/h (1 Bft)
13.02.2011 05:00 4,2 C 92 % 1011,0 hPa 0,0 mm 0,0 km/h (0 Bft) O-SO 112 0 min 0 UV-I 0 W/m 3,2 km/h (1 Bft)
13.02.2011 05:10 4,3 C 92 % 1010,9 hPa 0,3 mm 0,0 km/h (0 Bft) O-SO 112 0 min 0 UV-I 0 W/m 3,2 km/h (1 Bft)
13.02.2011 05:20 4,3 C 92 % 1010,9 hPa 0,0 mm 0,0 km/h (0 Bft) O-SO 112 0 min 0 UV-I 0 W/m 1,6 km/h (1 Bft)
13.02.2011 05:30 4,3 C 93 % 1011,1 hPa 0,3 mm 0,0 km/h (0 Bft) O-SO 112 0 min 0 UV-I 0 W/m 1,6 km/h (1 Bft)
13.02.2011 05:40 4,3 C 93 % 1011,0 hPa 0,3 mm 0,0 km/h (0 Bft) O-SO 112 0 min 0 UV-I 0 W/m 1,6 km/h (1 Bft)
13.02.2011 05:50 4,3 C 93 % 1010,9 hPa 0,3 mm 0,0 km/h (0 Bft) O-SO 112 0 min 0 UV-I 0 W/m 4,8 km/h (1 Bft)
13.02.2011 06:00 4,4 C 93 % 1010,9 hPa 0,3 mm 1,6 km/h (1 Bft) O-SO 112 0 min 0 UV-I 0 W/m 4,8 km/h (1 Bft)
13.02.2011 06:10 4,4 C 93 % 1010,9 hPa 0,0 mm 0,0 km/h (0 Bft) O-SO 112 0 min 0 UV-I 0 W/m 3,2 km/h (1 Bft)
13.02.2011 06:20 4,4 C 93 % 1010,9 hPa 0,0 mm 0,0 km/h (0 Bft) O-SO 112 0 min 0 UV-I 0 W/m 1,6 km/h (1 Bft)
13.02.2011 06:30 4,4 C 93 % 1010,8 hPa 0,0 mm 0,0 km/h (0 Bft) O-SO 112 0 min 0 UV-I 0 W/m 3,2 km/h (1 Bft)
13.02.2011 06:40 4,5 C 93 % 1010,8 hPa 0,0 mm 0,0 km/h (0 Bft) N 0 0 min 0 UV-I 0 W/m 0,0 km/h (0 Bft)
13.02.2011 06:50 4,5 C 93 % 1010,9 hPa 0,0 mm 0,0 km/h (0 Bft) O-SO 112 0 min 0 UV-I 0 W/m 1,6 km/h (1 Bft)
13.02.2011 07:00 4,5 C 93 % 1010,9 hPa 0,3 mm 0,0 km/h (0 Bft) N 0 0 min 0 UV-I 0 W/m 0,0 km/h (0 Bft)
13.02.2011 07:10 4,5 C 93 % 1010,9 hPa 0,5 mm 0,0 km/h (0 Bft) N 0 0 min 0 UV-I 0 W/m 0,0 km/h (0 Bft)
13.02.2011 07:20 4,6 C 93 % 1010,8 hPa 0,0 mm 0,0 km/h (0 Bft) N 0 0 min 0 UV-I 0 W/m 0,0 km/h (0 Bft)
13.02.2011 07:30 4,6 C 93 % 1010,7 hPa 0,3 mm 0,0 km/h (0 Bft) N 0 0 min 0 UV-I 0 W/m 0,0 km/h (0 Bft)
13.02.2011 07:40 4,6 C 93 % 1010,9 hPa 0,3 mm 0,0 km/h (0 Bft) N 0 0 min 0 UV-I 0 W/m 0,0 km/h (0 Bft)
13.02.2011 07:50 4,6 C 93 % 1010,9 hPa 0,0 mm 0,0 km/h (0 Bft) N 0 0 min 0 UV-I 0 W/m 0,0 km/h (0 Bft)
13.02.2011 08:00 4,6 C 93 % 1011,1 hPa 0,3 mm 0,0 km/h (0 Bft) O-SO 112 0 min 0 UV-I 0 W/m 1,6 km/h (1 Bft)
13.02.2011 08:10 4,7 C 93 % 1011,1 hPa 0,3 mm 0,0 km/h (0 Bft) O-SO 112 0 min 0 UV-I 0 W/m 1,6 km/h (1 Bft)
13.02.2011 08:20 4,7 C 93 % 1011,0 hPa 0,8 mm 0,0 km/h (0 Bft) O-SO 112 0 min 0 UV-I 0 W/m 3,2 km/h (1 Bft)
13.02.2011 08:30 4,8 C 93 % 1011,0 hPa 0,3 mm 0,0 km/h (0 Bft) O-SO 112 0 min 0 UV-I 0 W/m 3,2 km/h (1 Bft)
13.02.2011 08:40 4,9 C 93 % 1011,1 hPa 0,5 mm 0,0 km/h (0 Bft) O-SO 112 0 min 0 UV-I 9 W/m 4,8 km/h (1 Bft)
13.02.2011 08:50 5,2 C 94 % 1011,2 hPa 0,3 mm 1,6 km/h (1 Bft) SO 135 0 min 0 UV-I 9 W/m 4,8 km/h (1 Bft)
13.02.2011 09:00 5,4 C 93 % 1011,2 hPa 0,3 mm 1,6 km/h (1 Bft) S-SO 157 0 min 0 UV-I 11 W/m 6,4 km/h (2 Bft)
13.02.2011 09:10 5,6 C 94 % 1011,3 hPa 0,0 mm 1,6 km/h (1 Bft) SW 225 0 min 0 UV-I 16 W/m 6,4 km/h (2 Bft)
13.02.2011 09:20 5,7 C 93 % 1011,3 hPa 0,0 mm 1,6 km/h (1 Bft) SW 225 0 min 0 UV-I 23 W/m 6,4 km/h (2 Bft)
13.02.2011 09:30 5,8 C 93 % 1011,3 hPa 0,0 mm 3,2 km/h (1 Bft) W-SW 247 0 min 0 UV-I 30 W/m 8,0 km/h (2 Bft)
13.02.2011 09:40 5,8 C 93 % 1011,4 hPa 0,0 mm 3,2 km/h (1 Bft) W-SW 247 0 min 0 UV-I 28 W/m 9,7 km/h (2 Bft)
13.02.2011 09:50 5,9 C 93 % 1011,4 hPa 0,0 mm 3,2 km/h (1 Bft) SW 225 0 min 0 UV-I 23 W/m 9,7 km/h (2 Bft)
13.02.2011 10:00 5,9 C 93 % 1011,3 hPa 0,0 mm 4,8 km/h (1 Bft) W-SW 247 0 min 0 UV-I 23 W/m 14,5 km/h (3 Bft)
13.02.2011 10:10 5,9 C 93 % 1011,3 hPa 0,0 mm 3,2 km/h (1 Bft) W-SW 247 0 min 0 UV-I 37 W/m 11,3 km/h (2 Bft)
13.02.2011 10:20 5,9 C 93 % 1011,3 hPa 0,0 mm 3,2 km/h (1 Bft) W-SW 247 0 min 0 UV-I 42 W/m 9,7 km/h (2 Bft)
13.02.2011 10:30 5,9 C 93 % 1011,4 hPa 0,0 mm 3,2 km/h (1 Bft) SW 225 0 min 0 UV-I 30 W/m 8,0 km/h (2 Bft)
13.02.2011 10:40 5,9 C 93 % 1011,4 hPa 0,0 mm 1,6 km/h (1 Bft) W-NW 292 0 min 0 UV-I 40 W/m 6,4 km/h (2 Bft)
13.02.2011 10:50 5,9 C 93 % 1011,4 hPa 0,0 mm 1,6 km/h (1 Bft) W-NW 292 0 min 0 UV-I 69 W/m 6,4 km/h (2 Bft)
13.02.2011 11:00 5,9 C 93 % 1011,5 hPa 0,0 mm 0,0 km/h (0 Bft) W-NW 292 0 min 1 UV-I 100 W/m 4,8 km/h (1 Bft)
13.02.2011 11:10 6,0 C 94 % 1011,5 hPa 0,0 mm 1,6 km/h (1 Bft) W-NW 292 0 min 1 UV-I 100 W/m 6,4 km/h (2 Bft)
13.02.2011 11:20 6,1 C 94 % 1011,5 hPa 0,0 mm 1,6 km/h (1 Bft) W-NW 292 0 min 1 UV-I 111 W/m 6,4 km/h (2 Bft)
13.02.2011 11:30 6,3 C 94 % 1011,5 hPa 0,0 mm 1,6 km/h (1 Bft) W-SW 247 0 min 1 UV-I 135 W/m 8,0 km/h (2 Bft)
13.02.2011 11:40 6,5 C 93 % 1011,5 hPa 0,0 mm 1,6 km/h (1 Bft) W-SW 247 0 min 1 UV-I 98 W/m 6,4 km/h (2 Bft)
13.02.2011 11:50 6,5 C 93 % 1011,4 hPa 0,0 mm 1,6 km/h (1 Bft) W 270 0 min 1 UV-I 74 W/m 6,4 km/h (2 Bft)
13.02.2011 12:00 6,5 C 93 % 1011,4 hPa 0,0 mm 1,6 km/h (1 Bft) W 270 0 min 1 UV-I 72 W/m 6,4 km/h (2 Bft)
13.02.2011 12:10 6,4 C 93 % 1011,2 hPa 0,0 mm 1,6 km/h (1 Bft) W 270 0 min 1 UV-I 192 W/m 8,0 km/h (2 Bft)
13.02.2011 12:20 6,6 C 92 % 1011,1 hPa 0,0 mm 1,6 km/h (1 Bft) W 270 10 min 1 UV-I 332 W/m 6,4 km/h (2 Bft)
13.02.2011 12:30 7,3 C 90 % 1011,1 hPa 0,0 mm 1,6 km/h (1 Bft) W 270 10 min 2 UV-I 533 W/m 6,4 km/h (2 Bft)
13.02.2011 12:40 7,4 C 87 % 1010,9 hPa 0,0 mm 0,9 km/h (0 Bft) W 275 0 min 1 UV-I 181 W/m 4,8 km/h (1 Bft)
13.02.2011 12:50 7,3 C 87 % 1010,9 hPa 0,0 mm 0,0 km/h (0 Bft) W 270 0 min 1 UV-I 127 W/m 4,8 km/h (1 Bft)
13.02.2011 13:00 7,3 C 86 % 1010,8 hPa 0,0 mm 0,0 km/h (0 Bft) W 270 0 min 1 UV-I 109 W/m 3,2 km/h (1 Bft)
13.02.2011 13:10 7,3 C 86 % 1010,7 hPa 0,0 mm 0,0 km/h (0 Bft) W 270 0 min 1 UV-I 113 W/m 3,2 km/h (1 Bft)
13.02.2011 13:20 7,3 C 85 % 1010,7 hPa 0,0 mm 0,0 km/h (0 Bft) W 270 0 min 1 UV-I 127 W/m 3,2 km/h (1 Bft)
13.02.2011 13:30 7,3 C 85 % 1010,5 hPa 0,0 mm 0,0 km/h (0 Bft) W 270 0 min 1 UV-I 163 W/m 4,8 km/h (1 Bft)
13.02.2011 13:40 7,4 C 84 % 1010,4 hPa 0,0 mm 0,0 km/h (0 Bft) W 270 10 min 1 UV-I 225 W/m 1,6 km/h (1 Bft)
13.02.2011 13:50 7,7 C 85 % 1010,4 hPa 0,0 mm 0,0 km/h (0 Bft) W 270 10 min 1 UV-I 406 W/m 1,6 km/h (1 Bft)
13.02.2011 14:00 8,0 C 85 % 1010,3 hPa 0,0 mm 0,0 km/h (0 Bft) W 270 10 min 1 UV-I 383 W/m 3,2 km/h (1 Bft)
13.02.2011 14:10 8,1 C 82 % 1010,4 hPa 0,0 mm 0,0 km/h (0 Bft) W 270 10 min 1 UV-I 355 W/m 3,2 km/h (1 Bft)
13.02.2011 14:20 7,8 C 84 % 1010,3 hPa 0,0 mm 0,0 km/h (0 Bft) W 270 10 min 1 UV-I 315 W/m 1,6 km/h (1 Bft)
13.02.2011 14:30 8,0 C 84 % 1010,2 hPa 0,0 mm 0,0 km/h (0 Bft) W 270 10 min 1 UV-I 367 W/m 4,8 km/h (1 Bft)
13.02.2011 14:40 8,2 C 85 % 1010,1 hPa 0,0 mm 1,6 km/h (1 Bft) W-SW 247 10 min 1 UV-I 376 W/m 4,8 km/h (1 Bft)
13.02.2011 14:50 8,3 C 84 % 1010,0 hPa 0,0 mm 1,6 km/h (1 Bft) SO 135 10 min 1 UV-I 343 W/m 6,4 km/h (2 Bft)
13.02.2011 15:00 8,2 C 84 % 1009,9 hPa 0,0 mm 3,2 km/h (1 Bft) O-SO 112 10 min 1 UV-I 288 W/m 8,0 km/h (2 Bft)
13.02.2011 15:10 8,2 C 85 % 1009,9 hPa 0,0 mm 3,2 km/h (1 Bft) O-SO 112 10 min 1 UV-I 274 W/m 8,0 km/h (2 Bft)
13.02.2011 15:20 8,3 C 84 % 1009,9 hPa 0,0 mm 1,6 km/h (1 Bft) O 90 10 min 1 UV-I 250 W/m 6,4 km/h (2 Bft)
13.02.2011 15:30 8,2 C 83 % 1009,7 hPa 0,0 mm 3,2 km/h (1 Bft) O 90 10 min 1 UV-I 241 W/m 9,7 km/h (2 Bft)
13.02.2011 15:40 8,2 C 84 % 1009,6 hPa 0,0 mm 3,2 km/h (1 Bft) O-SO 112 10 min 1 UV-I 179 W/m 11,3 km/h (2 Bft)
13.02.2011 15:50 7,9 C 84 % 1009,6 hPa 0,0 mm 4,8 km/h (1 Bft) O 90 10 min 1 UV-I 195 W/m 9,7 km/h (2 Bft)
13.02.2011 16:00 7,8 C 83 % 1009,5 hPa 0,0 mm 4,8 km/h (1 Bft) O-SO 112 10 min 1 UV-I 156 W/m 14,5 km/h (3 Bft)
13.02.2011 16:10 7,7 C 84 % 1009,3 hPa 0,0 mm 4,8 km/h (1 Bft) O-SO 112 10 min 0 UV-I 151 W/m 11,3 km/h (2 Bft)
13.02.2011 16:20 7,6 C 83 % 1009,1 hPa 0,0 mm 6,4 km/h (2 Bft) O-SO 112 10 min 0 UV-I 169 W/m 14,5 km/h (3 Bft)
13.02.2011 16:30 7,5 C 83 % 1009,1 hPa 0,0 mm 4,8 km/h (1 Bft) O-SO 112 10 min 0 UV-I 91 W/m 9,7 km/h (2 Bft)
13.02.2011 16:40 7,3 C 84 % 1009,0 hPa 0,0 mm 3,2 km/h (1 Bft) O-SO 112 10 min 0 UV-I 67 W/m 9,7 km/h (2 Bft)
13.02.2011 16:50 7,1 C 85 % 1009,1 hPa 0,0 mm 3,2 km/h (1 Bft) O 90 0 min 0 UV-I 51 W/m 9,7 km/h (2 Bft)
13.02.2011 17:00 6,8 C 85 % 1009,0 hPa 0,0 mm 4,8 km/h (1 Bft) O-SO 112 0 min 0 UV-I 37 W/m 11,3 km/h (2 Bft)
13.02.2011 17:10 6,7 C 86 % 1008,9 hPa 0,0 mm 4,8 km/h (1 Bft) O-SO 112 0 min 0 UV-I 26 W/m 8,0 km/h (2 Bft)
13.02.2011 17:20 6,7 C 85 % 1009,0 hPa 0,0 mm 4,8 km/h (1 Bft) O-SO 112 10 min 0 UV-I 16 W/m 9,7 km/h (2 Bft)
13.02.2011 17:30 6,6 C 85 % 1009,0 hPa 0,0 mm 3,2 km/h (1 Bft) SO 135 0 min 0 UV-I 9 W/m 11,3 km/h (2 Bft)
13.02.2011 17:40 6,4 C 85 % 1009,2 hPa 0,0 mm 4,8 km/h (1 Bft) O-SO 112 0 min 0 UV-I 0 W/m 11,3 km/h (2 Bft)
13.02.2011 17:50 6,1 C 84 % 1009,2 hPa 0,0 mm 3,2 km/h (1 Bft) O-SO 112 0 min 0 UV-I 0 W/m 8,0 km/h (2 Bft)
13.02.2011 18:00 5,9 C 85 % 1009,2 hPa 0,0 mm 3,2 km/h (1 Bft) O-SO 112 0 min 0 UV-I 0 W/m 6,4 km/h (2 Bft)
13.02.2011 18:10 5,7 C 85 % 1009,2 hPa 0,0 mm 3,2 km/h (1 Bft) O-SO 112 0 min 0 UV-I 0 W/m 9,7 km/h (2 Bft)
13.02.2011 18:20 5,6 C 85 % 1009,2 hPa 0,0 mm 1,6 km/h (1 Bft) SO 135 0 min 0 UV-I 0 W/m 4,8 km/h (1 Bft)
13.02.2011 18:30 5,4 C 86 % 1009,2 hPa 0,0 mm 1,6 km/h (1 Bft) SO 135 0 min 0 UV-I 0 W/m 6,4 km/h (2 Bft)
13.02.2011 18:40 5,3 C 86 % 1009,2 hPa 0,0 mm 1,6 km/h (1 Bft) O-SO 112 0 min 0 UV-I 0 W/m 9,7 km/h (2 Bft)
13.02.2011 18:50 5,2 C 86 % 1009,3 hPa 0,0 mm 4,8 km/h (1 Bft) O-SO 112 0 min 0 UV-I 0 W/m 12,9 km/h (3 Bft)
13.02.2011 19:00 5,2 C 87 % 1009,3 hPa 0,0 mm 3,2 km/h (1 Bft) O-SO 112 0 min 0 UV-I 0 W/m 9,7 km/h (2 Bft)
13.02.2011 19:10 5,1 C 87 % 1009,3 hPa 0,0 mm 3,2 km/h (1 Bft) O-SO 112 0 min 0 UV-I 0 W/m 9,7 km/h (2 Bft)
13.02.2011 19:20 5,1 C 87 % 1009,3 hPa 0,0 mm 3,2 km/h (1 Bft) O-SO 112 0 min 0 UV-I 0 W/m 8,0 km/h (2 Bft)
13.02.2011 19:30 4,9 C 87 % 1009,3 hPa 0,0 mm 3,2 km/h (1 Bft) O-SO 112 0 min 0 UV-I 0 W/m 8,0 km/h (2 Bft)
13.02.2011 19:40 4,8 C 87 % 1009,3 hPa 0,0 mm 4,8 km/h (1 Bft) O-SO 112 0 min 0 UV-I 0 W/m 9,7 km/h (2 Bft)
13.02.2011 19:50 4,8 C 87 % 1009,2 hPa 0,0 mm 3,2 km/h (1 Bft) O-SO 112 0 min 0 UV-I 0 W/m 9,7 km/h (2 Bft)
13.02.2011 20:00 4,7 C 87 % 1009,2 hPa 0,0 mm 3,2 km/h (1 Bft) O-SO 112 0 min 0 UV-I 0 W/m 6,4 km/h (2 Bft)
13.02.2011 20:10 4,6 C 88 % 1009,1 hPa 0,0 mm 3,2 km/h (1 Bft) O-SO 112 0 min 0 UV-I 0 W/m 9,7 km/h (2 Bft)
13.02.2011 20:20 4,6 C 88 % 1009,2 hPa 0,0 mm 4,8 km/h (1 Bft) O-SO 112 0 min 0 UV-I 0 W/m 9,7 km/h (2 Bft)
13.02.2011 20:30 4,6 C 88 % 1009,1 hPa 0,0 mm 4,8 km/h (1 Bft) O-SO 112 0 min 0 UV-I 0 W/m 9,7 km/h (2 Bft)
13.02.2011 20:40 4,6 C 88 % 1009,1 hPa 0,0 mm 1,6 km/h (1 Bft) O-SO 112 0 min 0 UV-I 0 W/m 8,0 km/h (2 Bft)
13.02.2011 20:50 4,6 C 88 % 1009,1 hPa 0,0 mm 3,2 km/h (1 Bft) O-SO 112 0 min 0 UV-I 0 W/m 6,4 km/h (2 Bft)
13.02.2011 21:00 4,5 C 88 % 1009,0 hPa 0,0 mm 1,6 km/h (1 Bft) O-SO 112 0 min 0 UV-I 0 W/m 4,8 km/h (1 Bft)
13.02.2011 21:10 4,4 C 88 % 1009,0 hPa 0,0 mm 3,2 km/h (1 Bft) O-SO 112 0 min 0 UV-I 0 W/m 8,0 km/h (2 Bft)
13.02.2011 21:20 4,4 C 88 % 1009,0 hPa 0,0 mm 1,6 km/h (1 Bft) O-SO 112 0 min 0 UV-I 0 W/m 6,4 km/h (2 Bft)
13.02.2011 21:30 4,4 C 88 % 1009,1 hPa 0,0 mm 0,0 km/h (0 Bft) O-SO 112 0 min 0 UV-I 0 W/m 3,2 km/h (1 Bft)
13.02.2011 21:40 4,3 C 89 % 1009,0 hPa 0,0 mm 1,6 km/h (1 Bft) O-SO 112 0 min 0 UV-I 0 W/m 3,2 km/h (1 Bft)
13.02.2011 21:50 4,3 C 89 % 1009,0 hPa 0,0 mm 0,0 km/h (0 Bft) O-SO 112 0 min 0 UV-I 0 W/m 4,8 km/h (1 Bft)
13.02.2011 22:00 4,3 C 89 % 1008,9 hPa 0,0 mm 0,0 km/h (0 Bft) O-SO 112 0 min 0 UV-I 0 W/m 3,2 km/h (1 Bft)
13.02.2011 22:10 4,3 C 89 % 1008,8 hPa 0,0 mm 0,0 km/h (0 Bft) O-SO 112 0 min 0 UV-I 0 W/m 3,2 km/h (1 Bft)
13.02.2011 22:20 4,2 C 89 % 1008,7 hPa 0,0 mm 0,0 km/h (0 Bft) O-SO 112 0 min 0 UV-I 0 W/m 3,2 km/h (1 Bft)
13.02.2011 22:30 4,2 C 89 % 1008,8 hPa 0,0 mm 0,0 km/h (0 Bft) O-SO 112 0 min 0 UV-I 0 W/m 4,8 km/h (1 Bft)
13.02.2011 22:40 4,2 C 89 % 1008,6 hPa 0,0 mm 1,6 km/h (1 Bft) O-SO 112 0 min 0 UV-I 0 W/m 6,4 km/h (2 Bft)
13.02.2011 22:50 4,2 C 89 % 1008,6 hPa 0,0 mm 1,6 km/h (1 Bft) O-SO 112 0 min 0 UV-I 0 W/m 4,8 km/h (1 Bft)
13.02.2011 23:00 4,2 C 89 % 1008,6 hPa 0,0 mm 1,6 km/h (1 Bft) O-SO 112 0 min 0 UV-I 0 W/m 4,8 km/h (1 Bft)
13.02.2011 23:10 4,2 C 89 % 1008,5 hPa 0,0 mm 0,0 km/h (0 Bft) O-SO 112 0 min 0 UV-I 0 W/m 3,2 km/h (1 Bft)
13.02.2011 23:20 4,2 C 89 % 1008,4 hPa 0,0 mm 3,2 km/h (1 Bft) O-SO 112 0 min 0 UV-I 0 W/m 9,7 km/h (2 Bft)
13.02.2011 23:30 4,2 C 90 % 1008,3 hPa 0,0 mm 4,8 km/h (1 Bft) O-SO 112 0 min 0 UV-I 0 W/m 14,5 km/h (3 Bft)
13.02.2011 23:40 4,3 C 89 % 1008,3 hPa 0,0 mm 4,8 km/h (1 Bft) O-SO 112 0 min 0 UV-I 0 W/m 12,9 km/h (3 Bft)
13.02.2011 23:50 4,4 C 89 % 1008,4 hPa 0,0 mm 4,8 km/h (1 Bft) O-SO 112 0 min 0 UV-I 0 W/m 16,1 km/h (3 Bft)
_ Min-Zeit 00:00 14:10 23:30 - 00:00 - - - - - 06:40
Minimum _ 3,5 C 82 % 1008,3 hPa - 0,0 km/h (0 Bft) - - - - - 0,0 km/h (0 Bft)
_ Max-Zeit 14:50 08:50 00:00 08:20 16:20 - - 12:20 12:30 12:30 23:50
Maximum _ 8,3 C 94 % 1012,3 hPa 0,8 mm 6,4 km/h
O-SO (2 Bft)
- - 10 min 2 UV-I 533 W/m 16,1 km/h
SO (3 Bft)
Durchschnitt _ 5,3 C 90 % 1010,4 hPa #6,4 mm 1,6 km/h (1 Bft) O-SO - #3:40 h 1 UV-I 147 W/m 5,7 km/h (1 Bft)